{"data":{"norad_id":68089,"intl_designator":"2026-042W","name":"STARLINK-37004","alt_names":[],"object_type":"PAYLOAD","status":"ACTIVE","operator":null,"country":"US","launch_date":"2026-03-04","launch_site_code":"AFETR","launch_vehicle":null,"mission":null,"orbit_class":"UNKNOWN","rcs_meters":null,"size_class":null,"mass_kg":null,"dimensions":null,"purposes":["comms"],"wikipedia_slug":null,"has_3d_model":false,"image_url":null,"decayed_at":null,"tle_current":{"epoch":"2026-05-25T01:43:42.744864Z","epoch_age_seconds":68228,"freshness":"FRESH","line1":"1 68089U 26042W   26145.07202251  .00007332  00000+0  22794-3 0  9993","line2":"2 68089  53.1576 183.6567 0001079  93.3823 266.7302 15.34398679 14007","mean_motion":15.34398679,"eccentricity":0.0001079,"inclination_deg":53.1576,"raan_deg":183.6567,"arg_perigee_deg":93.3823,"mean_anomaly_deg":266.7302,"bstar":0.00022794,"rev_number":1400,"period_min":93.847838877082,"perigee_km":461.96903941474,"apogee_km":463.44529358587,"semimajor_km":6840.8441665003,"source":"CELESTRAK","updated_at":"2026-05-25T13:38:21.838404Z"}}}